Theta_e
306 314 315 319 321 322 323 323 323 323 325 326 326 327 328 327 326 326 327 328 328 328 328 327 325 323 325 327 327 328 327 326 327 327 327 328 329 328 328 328 328 328 327 327 326 322 323 321 321 319 320 320 319 317 317 315 313 312 312 311 312 311 310 304 303 304 304 303 303 303 304 305 305 304 304 303 303 303 302 302 302 302 303 304 305
301 306 312 315 319 319 320 322 319 321 322 325 326 327 328 327 327 327 327 328 328 328 328 328 328 327 325 325 326 326 326 325 326 325 327 327 327 328 328 328 327 327 326 327 325 324 323 321 320 320 320 320 320 319 317 313 313 312 312 310 310 311 309 306 305 307 303 304 304 304 305 306 306 305 304 304 303 302 301 301 301 301 302 303 303
301 304 309 313 316 318 319 320 321 323 323 325 326 326 327 326 327 327 328 328 328 328 327 327 327 326 325 321 324 319 323 327 327 326 326 326 325 326 328 328 328 327 326 325 326 325 324 322 321 321 321 320 318 317 316 315 314 312 310 310 306 303 305 304 306 308 307 304 304 303 302 303 303 299 302 302 302 302 300 300 301 301 301 302 302
302 301 305 310 314 316 317 318 320 322 321 323 324 325 327 325 326 327 327 328 327 327 325 327 326 325 324 322 323 324 321 321 323 323 325 324 324 324 326 328 328 328 326 325 325 325 324 323 322 321 321 320 319 318 316 315 314 313 311 309 310 309 307 307 306 307 309 307 303 303 301 301 301 303 299 302 300 302 301 300 300 300 301 301 300
303 301 302 307 310 314 316 318 319 320 321 322 323 324 327 325 326 327 327 327 327 325 324 325 323 321 321 318 318 317 317 318 317 317 321 322 320 319 323 324 326 325 325 324 322 324 324 325 324 323 322 320 320 319 317 316 315 314 312 311 311 312 311 309 307 307 307 310 309 301 300 299 300 302 303 306 300 300 300 300 300 300 300 300 299
304 302 302 305 309 311 313 313 315 318 319 320 322 324 325 324 324 324 325 326 326 324 324 324 323 323 321 320 318 317 318 315 319 320 317 318 322 318 318 322 324 324 324 324 324 323 325 326 325 324 323 322 319 319 318 315 314 313 313 313 311 312 313 310 307 305 306 307 309 311 311 308 304 302 304 302 305 302 300 298 299 300 299 299 299
300 300 300 301 303 305 306 307 310 314 316 317 316 319 320 322 322 323 324 325 325 324 322 322 322 323 323 322 320 319 319 315 311 312 316 314 314 317 319 320 324 324 324 326 326 326 327 327 326 324 323 322 318 319 316 316 317 315 314 313 313 312 311 310 310 309 304 304 306 307 308 308 306 304 303 302 301 302 300 298 299 298 299 299 299
301 300 299 300 302 303 304 305 305 310 309 306 312 315 317 319 320 321 321 321 323 323 321 322 322 321 321 320 318 317 317 315 312 315 315 316 315 317 315 318 321 324 324 324 326 327 326 326 325 324 322 320 317 318 319 318 317 314 313 314 313 311 311 310 310 311 306 306 304 304 304 305 306 305 305 303 301 299 302 304 302 299 298 298 300
297 298 298 298 300 300 301 302 302 301 302 304 309 313 314 316 317 316 318 319 318 320 321 319 320 319 319 317 315 314 314 313 308 307 311 310 314 310 311 312 314 317 320 321 321 321 319 323 324 323 322 322 317 318 318 317 317 315 313 312 312 311 311 311 311 310 308 309 304 302 303 303 304 304 303 302 299 299 300 302 304 298 297 300 300
295 296 295 295 296 297 298 299 299 300 301 301 301 303 307 310 314 315 315 314 316 316 318 316 316 316 316 315 315 311 309 308 309 309 308 309 310 309 309 309 312 313 313 314 317 318 319 319 321 321 321 321 316 318 318 317 316 316 316 315 313 312 312 311 311 312 312 311 309 306 302 301 301 301 301 301 300 301 299 301 303 303 302 305 302
296 296 297 297 296 297 298 300 299 299 297 299 300 302 303 309 311 314 312 311 312 314 316 315 315 316 316 315 314 312 309 311 309 307 306 306 308 308 308 307 306 309 310 311 312 312 315 316 319 319 319 317 316 318 317 317 317 316 316 315 314 313 313 312 310 310 311 310 309 308 307 305 305 302 301 300 300 297 297 298 300 301 301 302 305
296 296 296 297 298 298 297 299 300 300 299 299 298 300 302 303 307 310 306 309 309 311 313 313 314 314 313 312 311 311 311 311 310 310 307 307 305 306 307 308 306 306 308 310 314 316 315 315 314 316 316 317 317 317 316 317 317 316 316 315 314 312 312 309 310 310 309 309 309 308 308 308 306 306 307 307 303 303 302 301 301 303 302 303 305
295 295 295 296 297 298 298 299 299 300 301 299 300 300 300 302 305 308 307 306 309 310 312 311 310 309 310 309 308 309 310 311 310 308 305 308 307 305 308 308 307 311 309 312 311 312 313 316 315 313 314 314 316 317 317 317 316 316 314 313 313 312 312 311 310 309 309 308 308 309 308 308 307 308 306 305 305 304 303 301 302 302 301 302 304
296 296 296 296 297 297 298 299 300 299 299 301 301 301 302 303 304 307 306 306 307 307 309 308 308 308 308 308 309 309 310 310 309 309 304 306 307 307 308 309 311 312 311 311 312 312 310 311 313 314 312 314 314 315 315 315 315 315 314 314 313 313 310 310 309 309 308 308 308 307 307 307 308 307 307 305 304 303 301 301 300 298 299 300 302
295 296 297 298 298 298 299 300 300 300 301 301 302 303 303 304 305 306 306 305 307 306 306 308 308 309 308 307 306 306 308 310 306 308 307 307 308 310 309 310 311 312 312 313 310 310 309 308 310 312 312 313 311 311 311 313 313 312 311 310 310 309 309 309 308 308 308 307 306 306 306 306 306 306 305 305 305 304 303 302 300 299 299 298 297
294 295 296 296 298 298 300 300 300 301 302 301 303 303 304 305 305 306 307 306 307 306 306 308 309 310 309 309 308 308 308 310 311 311 310 310 307 307 305 306 308 308 307 305 304 304 305 306 306 308 310 311 311 308 309 308 307 308 308 309 309 310 308 307 306 305 306 306 305 305 305 305 306 306 306 306 306 306 305 305 302 300 297 295 297
293 296 295 296 296 298 300 300 301 301 302 303 304 304 305 305 306 306 306 305 306 306 307 308 310 311 311 311 311 311 312 311 311 311 312 307 304 302 303 305 305 303 303 302 300 300 301 301 302 303 304 304 305 307 308 309 307 306 304 304 304 304 306 307 306 306 306 305 305 306 306 306 306 306 305 305 305 305 305 304 303 302 301 297 295
295 295 296 297 298 298 299 300 300 302 302 302 303 302 305 306 306 306 305 306 305 306 307 309 312 312 312 312 312 312 312 310 308 308 306 304 301 300 299 301 300 300 300 300 299 299 298 297 298 298 298 299 301 303 304 306 307 306 307 305 304 303 303 301 301 303 305 304 304 304 303 302 303 302 302 304 303 304 302 303 303 303 302 299 298
295 295 296 297 298 298 299 299 298 299 299 300 301 303 304 303 304 305 305 305 307 308 309 310 311 310 312 311 311 309 307 305 302 299 299 300 298 298 299 298 297 298 299 298 298 296 295 295 295 295 296 296 296 297 295 296 298 301 300 300 302 302 301 300 300 302 302 302 302 302 301 300 301 302 303 303 302 302 302 302 302 302 301 301 299
296 297 297 297 297 297 298 298 299 299 299 299 300 302 303 303 304 303 302 303 304 306 306 307 306 306 306 306 305 303 300 300 298 299 300 298 297 297 296 298 296 296 295 294 294 294 293 294 293 292 293 294 294 294 294 295 294 294 292 296 298 299 299 298 297 297 300 299 300 301 300 299 299 300 301 301 301 301 302 302 302 302 301 301 300
296 297 297 297 296 296 296 296 297 296 296 297 300 300 300 301 302 301 302 301 301 301 302 302 302 301 301 300 299 299 298 298 298 297 297 296 296 295 295 293 292 294 291 292 293 291 291 291 291 291 290 292 292 292 292 293 292 293 294 297 297 298 298 298 298 297 296 296 298 299 300 299 299 300 300 299 298 299 297 298 298 298 298 296 297
296 296 297 296 295 295 294 294 293 296 296 297 298 298 299 299 299 299 299 299 299 299 300 300 299 299 298 297 297 295 296 296 295 294 294 292 292 292 290 291 292 289 289 290 290 289 289 290 289 289 290 292 294 296 292 292 291 291 292 295 295 296 297 296 297 296 297 298 297 298 298 298 297 298 298 298 296 295 293 293 293 293 295 295 293
297 297 296 295 295 295 295 295 295 295 295 295 295 297 298 297 296 296 297 296 298 298 298 298 298 297 295 294 293 293 293 291 291 291 290 290 290 289 289 290 290 289 287 289 288 290 289 289 290 290 292 294 296 295 295 295 294 294 294 295 295 295 296 295 295 295 296 296 297 296 297 297 298 297 297 296 295 294 294 294 294 295 294 295 294
294 295 295 295 293 292 294 294 295 296 295 296 296 296 296 295 294 295 295 295 296 296 296 296 295 293 292 292 291 289 290 290 290 289 289 288 289 288 288 289 286 287 290 289 288 287 288 287 288 288 290 292 291 292 292 292 294 294 294 295 294 294 294 295 295 295 295 295 295 295 296 296 295 295 295 294 293 292 292 292 293 293 293 293 293
295 295 294 293 292 293 295 295 296 295 295 295 296 295 294 293 292 294 294 293 294 294 294 293 292 291 290 290 289 288 289 288 288 288 288 287 288 289 288 287 287 288 287 288 289 287 286 287 288 289 290 289 288 289 290 290 290 291 292 292 292 292 293 293 293 294 292 294 294 294 294 294 294 293 292 292 292 292 292 292 292 292 292 293 293
296 294 293 294 294 293 293 294 295 294 295 294 293 292 292 292 292 291 293 293 292 292 292 292 291 291 290 289 288 288 287 287 287 287 287 287 288 287 287 286 286 288 287 287 287 286 286 286 286 287 287 286 285 285 286 287 287 286 287 287 287 288 288 288 289 290 290 290 291 292 293 293 293 292 292 292 292 291 292 292 291 292 292 292 292
295 295 294 291 292 295 295 294 295 294 293 293 292 292 291 292 291 290 290 292 292 292 291 291 290 289 289 288 288 288 287 288 287 287 287 287 287 286 286 287 286 286 286 286 285 286 286 287 287 287 287 287 287 286 287 286 287 286 286 286 286 285 286 285 286 287 287 287 288 289 290 290 291 291 291 291 291 291 291 291 291 291 292 291 291
293 293 294 295 295 294 294 294 293 293 292 291 291 291 291 291 291 290 291 292 292 291 290 289 289 288 288 287 286 286 286 286 286 286 286 286 285 285 285 284 285 285 285 285 286 286 285 285 285 286 285 285 286 286 285 285 285 285 285 285 285 285 285 285 284 285 285 285 286 287 288 288 289 290 290 290 290 290 291 290 291 291 291 291 290
294 295 295 295 296 295 294 293 293 292 292 291 291 290 290 289 289 289 290 290 289 290 289 288 288 288 287 287 286 286 286 286 285 285 285 284 284 283 283 283 283 284 285 284 284 285 285 285 284 285 285 284 285 285 286 286 286 286 285 285 285 285 284 285 285 285 285 285 285 285 286 287 287 288 289 289 290 291 291 290 290 291 290 290 290
295 295 295 296 296 295 294 293 292 292 291 291 291 290 290 290 289 288 289 288 289 288 288 287 287 287 286 286 286 285 285 285 285 284 283 283 283 282 283 283 284 283 283 283 283 283 284 284 284 283 283 284 284 285 287 291 292 288 286 286 285 284 284 284 284 284 285 285 285 285 286 286 287 287 287 288 290 290 290 290 289 289 289 289 289
296 295 295 295 295 294 293 293 292 292 291 291 291 290 289 289 288 288 288 287 288 287 287 287 286 285 286 285 285 285 284 284 283 283 282 283 282 282 282 283 283 283 283 283 283 284 284 284 284 283 283 284 285 285 289 292 293 293 287 284 284 284 284 283 283 283 283 284 284 285 285 285 286 286 287 288 289 290 290 290 291 290 290 289 288
296 296 295 295 295 294 294 293 292 292 291 291 290 289 289 289 288 288 287 287 287 287 286 286 285 285 285 285 284 284 283 283 282 282 282 280 280 281 282 281 283 283 282 281 283 282 283 283 284 283 283 283 283 287 290 291 291 292 291 287 283 283 283 283 283 283 283 283 284 284 284 285 285 286 286 286 287 288 289 289 290 290 290 291 291
296 295 295 295 296 296 295 293 292 292 291 290 290 289 289 288 288 287 287 287 287 286 286 285 284 284 284 284 284 283 283 283 282 282 280 280 281 282 282 283 282 280 281 282 280 282 282 282 282 283 283 283 282 286 290 291 291 291 291 288 283 281 283 282 282 283 283 283 283 283 284 285 285 285 285 285 285 285 287 288 288 288 289 289 290
295 295 296 296 295 294 293 292 291 291 290 290 289 289 289 288 288 287 287 287 286 286 285 285 284 284 283 283 283 283 282 282 281 281 281 281 282 282 280 279 279 280 281 280 279 280 280 281 282 282 282 282 282 286 290 290 290 291 291 290 282 282 282 282 282 282 282 282 282 282 283 283 284 283 283 283 284 285 285 285 286 286 286 287 288
294 294 293 294 295 293 291 290 290 290 289 288 288 288 288 287 288 287 286 286 285 285 284 284 283 282 282 282 282 282 282 281 280 280 280 280 280 279 280 279 280 279 280 280 280 279 279 279 279 280 281 282 283 288 290 290 290 290 291 290 283 282 282 281 282 281 282 282 282 282 282 282 283 283 284 285 284 285 285 285 285 285 285 286 286
294 294 294 295 294 294 292 291 289 288 288 288 288 288 288 287 287 286 285 285 284 283 283 282 282 281 281 281 281 281 280 280 280 279 280 280 279 279 279 278 278 278 277 278 278 277 278 279 279 278 280 281 282 287 288 289 289 290 291 285 282 281 281 281 281 281 281 281 281 281 281 282 283 283 285 287 287 286 285 284 284 284 285 285 286
295 295 295 296 295 294 292 289 288 288 288 288 287 287 287 286 285 285 284 283 283 282 282 281 281 281 281 280 280 280 280 279 279 279 278 278 278 278 277 278 277 277 277 278 277 277 277 277 278 278 277 279 280 283 287 288 289 290 288 282 280 280 280 280 281 281 281 281 280 280 281 282 282 282 285 287 288 287 284 283 283 283 284 284 284
290 288 289 288 288 288 288 289 288 287 287 287 286 287 286 285 284 283 282 282 282 281 281 281 280 280 280 280 280 279 279 278 277 278 277 276 277 277 277 277 277 276 277 277 277 278 277 277 277 277 277 277 279 282 286 288 289 289 287 282 281 280 280 280 281 282 282 282 282 282 282 281 282 282 286 287 287 286 284 283 283 283 283 283 284
288 290 288 287 287 287 286 286 286 286 285 285 285 285 285 283 282 282 282 281 281 280 280 280 280 279 279 279 278 278 277 276 276 275 275 275 276 276 276 275 275 275 276 276 277 277 276 276 275 276 279 278 276 280 285 287 287 287 285 282 281 279 280 280 281 281 281 282 281 282 283 284 283 284 286 286 287 285 284 284 284 283 282 282 284
285 285 286 286 285 286 285 286 286 285 285 284 284 284 283 282 281 281 281 280 280 280 279 279 279 278 278 277 277 276 275 274 274 273 273 275 275 274 274 273 274 274 275 275 275 275 274 274 274 275 276 276 277 278 281 285 285 286 286 283 279 279 279 279 279 279 279 280 280 280 281 283 285 285 286 286 286 286 284 284 283 282 282 281 284
284 284 285 285 285 286 286 285 285 284 284 284 284 283 282 281 280 280 279 279 278 278 278 278 277 277 276 275 274 273 273 272 272 273 274 273 272 273 273 273 272 274 272 272 272 272 273 274 275 275 275 276 277 277 278 283 284 285 286 284 279 279 279 279 279 279 279 279 279 280 280 283 284 285 285 285 286 286 285 284 283 282 282 283 284
283 284 284 284 283 282 282 282 282 283 283 283 283 282 280 279 279 278 277 277 277 277 277 276 276 275 274 272 272 272 271 272 272 272 271 272 271 270 271 272 271 272 273 273 273 274 274 274 274 274 274 275 277 279 277 281 283 283 284 284 281 280 281 280 279 279 279 279 279 279 280 282 284 284 284 285 285 285 285 283 282 284 285 285 283
283 282 282 283 283 282 282 281 282 282 282 282 282 280 279 278 277 276 276 276 276 276 275 275 274 273 272 271 270 270 271 271 271 271 269 271 270 270 271 272 272 271 272 272 272 272 272 273 273 275 275 275 275 276 280 278 281 282 283 283 283 281 282 280 279 278 278 279 280 280 281 282 283 283 284 284 284 284 283 282 284 284 284 284 283
282 282 282 283 282 281 280 280 280 281 281 281 281 279 277 276 275 275 274 274 274 273 273 273 272 271 271 271 270 269 270 269 270 270 270 271 273 274 273 273 272 271 270 272 272 272 272 273 273 273 274 274 274 275 277 279 279 281 281 282 281 281 281 280 279 278 279 279 280 280 281 282 283 283 283 283 283 282 281 283 284 284 284 284 282
282 282 282 282 281 280 279 279 279 279 279 278 278 278 276 275 274 274 273 273 273 272 272 270 270 270 270 268 268 269 268 268 268 270 271 272 271 270 270 270 271 271 270 271 270 272 271 271 271 272 272 273 274 274 273 277 279 279 280 280 281 281 281 281 278 278 279 279 280 282 282 282 282 282 282 282 281 281 282 283 283 283 282 282 282
280 280 280 280 280 279 278 277 276 276 277 276 276 277 275 274 273 273 272 272 271 271 270 269 269 269 269 269 270 269 269 268 269 270 270 269 269 269 269 268 268 268 267 268 269 270 269 270 269 269 270 271 272 272 272 273 276 277 278 279 280 280 279 279 279 278 280 280 281 281 281 281 281 280 279 278 279 279 281 282 282 282 281 281 281
280 279 278 278 278 278 277 277 276 275 275 275 274 274 273 273 272 272 272 271 270 270 270 269 269 268 268 268 269 269 269 269 268 268 268 268 268 266 267 269 267 266 266 267 268 269 268 268 268 269 270 272 272 271 272 274 276 277 277 278 278 277 278 279 278 278 278 278 279 279 279 280 280 280 280 280 279 280 280 280 281 281 281 281 280
279 278 277 277 277 277 276 276 275 275 274 273 272 271 271 270 270 270 270 270 270 269 269 268 268 268 268 268 268 272 269 267 267 267 266 266 266 266 265 267 267 266 266 266 266 266 267 268 269 271 272 272 271 271 272 274 275 277 277 277 277 277 276 277 277 277 278 278 278 278 278 277 277 277 277 277 278 279 280 280 279 279 279 280 279
278 277 277 277 276 276 275 275 275 275 273 271 270 270 269 269 268 268 269 269 269 269 268 267 267 267 268 268 267 267 266 266 265 265 265 266 266 266 266 266 265 265 266 266 265 266 269 268 269 270 271 270 271 270 273 277 277 278 276 275 275 275 276 276 277 279 277 276 276 275 274 274 275 275 276 276 277 277 276 277 277 277 277 277 278
277 277 276 275 275 275 274 274 274 274 272 271 269 269 268 267 267 266 267 267 268 267 267 266 266 266 266 266 266 265 265 264 264 263 263 264 272 274 271 265 267 275 277 278 277 269 270 269 268 268 269 270 270 273 277 278 278 277 278 278 278 278 278 277 278 278 276 273 272 272 273 273 274 274 274 274 273 273 273 274 274 276 276 276 277
276 276 275 275 274 274 273 273 274 274 271 270 268 267 266 265 265 266 266 267 267 267 266 266 266 264 265 265 265 265 266 265 264 264 264 264 264 269 277 276 275 274 276 277 277 276 276 276 272 267 269 276 276 277 277 277 277 277 277 277 277 277 277 277 277 274 272 271 271 271 271 272 273 272 271 271 271 271 272 272 273 274 275 276 276
Wind_Speed
9 11 11 11 12 10 9 9 9 8 8 9 9 9 10 11 10 11 9 10 9 9 9 9 9 7 6 9 9 8 7 6 6 6 6 7 7 7 7 7 6 7 7 7 7 7 7 6 5 4 4 5 5 6 6 8 7 6 5 5 6 5 5 3 3 3 2 3 4 6 6 5 7 7 8 8 9 8 7 7 7 6 7 7 8
4 6 7 8 10 9 8 8 8 10 8 9 11 12 11 10 12 11 9 10 10 10 10 10 9 10 9 10 9 8 7 8 7 6 7 6 7 8 8 7 7 8 8 8 8 7 7 6 6 6 6 6 6 7 7 5 5 5 4 3 4 7 6 5 5 4 2 6 5 5 4 5 8 8 9 10 9 8 8 7 7 8 9 8 6
7 10 9 10 11 11 10 9 10 12 12 12 11 11 11 10 11 10 10 11 10 11 10 11 9 8 8 5 8 5 5 7 6 7 7 7 7 7 8 8 8 8 8 8 7 7 7 7 6 6 6 6 6 6 6 7 6 7 6 7 5 2 3 2 6 7 5 1 1 2 5 4 2 2 6 9 9 8 6 7 9 7 10 8 6
10 10 11 10 11 11 9 9 10 9 9 8 8 11 10 10 10 11 11 10 10 11 11 9 9 7 6 5 6 6 6 5 6 6 7 6 7 7 6 7 8 7 7 7 7 7 7 8 7 7 8 7 8 7 7 8 6 6 6 7 5 4 4 6 6 7 6 5 3 5 2 0 8 4 3 5 6 9 7 9 6 8 8 7 5
11 8 7 9 9 11 13 12 9 10 10 11 10 11 9 12 12 12 12 11 10 10 11 8 7 5 5 3 3 2 2 3 5 6 7 6 5 4 6 6 6 7 6 7 7 8 7 8 8 8 7 6 7 6 6 7 8 7 8 7 8 8 8 5 2 4 6 6 6 1 2 1 5 5 4 6 2 3 6 7 6 7 8 8 6
13 13 12 12 13 10 9 8 9 10 11 10 10 11 10 10 9 9 9 9 10 10 11 9 9 9 8 8 7 5 6 5 9 9 5 6 6 4 4 4 5 5 5 5 5 6 7 7 5 7 8 6 5 7 7 6 6 6 7 8 9 8 8 5 4 3 7 7 7 7 6 7 4 2 3 6 2 5 5 3 5 6 7 7 6
5 5 7 8 7 8 8 9 10 11 11 8 7 7 7 8 8 9 10 9 9 9 9 9 9 9 11 10 8 9 9 5 2 2 5 3 3 4 5 5 5 5 5 5 5 6 6 6 7 5 4 4 5 6 6 7 8 9 7 7 9 7 6 8 8 5 2 5 7 10 10 8 4 2 7 3 9 3 2 3 5 6 8 7 7
10 10 10 10 11 12 13 13 11 12 8 6 7 6 8 9 9 9 8 9 8 8 9 9 10 9 9 8 8 8 8 7 5 4 4 4 3 4 3 3 4 5 6 6 6 5 5 4 4 4 4 5 6 7 8 8 5 3 5 4 2 3 5 7 7 6 6 4 6 9 9 8 6 5 6 7 7 10 12 5 5 6 6 7 7
7 9 9 10 11 10 8 9 8 6 6 8 8 7 6 7 8 6 8 7 6 8 9 7 8 8 8 7 7 6 6 6 4 3 6 4 5 2 2 2 3 4 4 4 4 3 3 3 3 3 4 4 5 5 5 5 6 6 5 5 6 6 6 7 6 7 5 8 5 6 5 7 6 6 5 3 6 8 12 8 12 1 3 6 6
5 5 5 5 6 6 6 5 5 6 5 5 4 4 5 5 7 8 7 7 7 6 8 7 7 8 8 7 8 6 4 3 5 4 3 1 3 3 2 2 2 2 1 1 2 2 2 3 3 3 3 3 3 4 4 5 5 6 8 9 9 9 7 8 10 9 8 7 7 5 5 4 5 5 5 5 6 9 12 9 9 11 12 8 5
5 3 1 2 2 4 5 6 5 3 3 5 5 5 5 5 6 7 6 6 5 7 7 8 7 7 8 8 8 7 5 7 6 4 4 4 4 2 2 2 3 3 1 1 1 1 0 0 0 1 0 0 1 1 3 3 3 4 4 4 4 7 6 7 7 7 6 6 8 8 9 8 8 7 5 5 7 6 6 10 10 8 9 12 7
3 3 2 3 4 3 4 5 5 5 4 5 5 5 5 5 5 7 5 5 5 6 7 7 7 7 6 7 7 6 7 6 7 7 6 5 4 3 1 0 1 2 2 2 2 1 1 1 0 1 2 2 2 2 2 3 3 3 4 5 5 5 4 4 7 9 10 8 7 5 7 8 7 8 9 8 8 9 7 10 10 8 8 8 8
4 4 4 4 5 5 5 5 4 5 5 5 5 5 5 5 6 8 6 5 6 6 7 7 6 6 6 6 5 6 6 7 7 6 4 5 4 3 1 0 2 3 5 5 4 3 3 5 4 3 2 2 3 4 4 3 3 3 3 4 4 5 6 6 5 5 5 7 8 6 4 4 7 6 4 4 5 5 6 10 11 5 11 11 6
5 5 5 5 5 5 5 5 5 5 5 6 5 5 5 5 6 7 6 5 5 5 6 6 5 5 5 6 6 6 6 6 6 6 3 3 4 3 2 1 0 2 3 5 6 6 5 6 5 4 3 1 0 0 1 2 3 4 3 3 4 4 3 4 6 6 5 6 4 5 5 6 7 4 5 4 6 5 7 8 10 7 6 12 9
5 5 6 6 6 6 6 6 5 5 5 6 5 5 5 6 6 7 6 5 6 6 5 6 5 6 5 5 5 4 5 6 4 5 4 3 3 2 2 3 4 5 6 4 3 4 5 3 3 3 3 3 2 2 2 1 1 2 3 2 2 2 3 3 3 4 6 5 4 5 6 5 5 5 3 5 4 5 6 7 6 13 14 9 9
4 5 4 5 5 5 5 5 5 5 6 5 6 5 6 6 6 6 7 6 6 6 5 6 6 5 4 4 3 4 4 4 4 3 4 4 2 4 4 4 3 2 1 1 2 1 1 0 1 1 2 2 2 2 3 3 3 2 1 1 3 3 3 3 3 3 4 4 4 4 4 6 5 5 5 6 6 6 7 7 6 7 10 16 11
4 5 5 5 4 5 5 5 5 6 6 6 6 6 6 7 7 7 6 5 6 5 6 5 6 5 3 3 3 3 3 2 2 2 0 0 1 2 2 1 1 1 2 2 3 3 3 3 3 2 2 2 1 2 2 3 3 3 3 2 2 3 2 3 2 2 4 4 4 6 6 6 6 6 6 6 6 5 6 6 5 8 8 10 13
5 5 4 5 5 5 5 5 5 6 5 6 6 5 6 6 7 8 6 7 5 5 5 5 6 6 5 4 4 4 4 3 3 3 3 2 2 2 2 3 2 1 3 3 4 4 4 4 3 3 2 2 1 1 1 2 2 3 3 3 3 2 3 3 3 4 4 4 5 5 4 5 5 5 6 6 6 6 6 7 7 7 7 10 11
5 5 5 5 5 5 5 5 5 5 5 5 5 6 6 5 5 6 7 5 5 4 5 5 5 4 4 3 3 3 3 4 3 3 4 4 4 4 4 3 4 5 6 5 5 5 6 6 5 5 5 5 5 5 4 3 2 1 2 2 3 2 3 3 4 3 3 3 5 6 4 4 5 7 7 7 6 6 6 6 7 6 7 8 10
6 6 5 5 5 5 6 7 7 7 6 5 6 6 7 6 7 6 5 5 5 5 6 7 6 6 6 5 4 4 4 4 4 4 5 4 4 4 4 5 4 5 4 4 5 5 5 5 5 6 5 6 5 5 5 5 6 6 3 3 3 2 1 2 3 3 3 3 4 6 5 4 5 5 6 6 6 6 6 7 7 7 8 7 9
6 7 6 6 6 5 5 5 5 5 4 5 5 7 6 6 7 7 8 7 6 6 6 6 6 6 7 6 6 6 5 5 5 5 6 5 5 5 4 3 4 5 4 5 5 4 4 5 4 4 4 4 4 5 5 5 6 6 6 5 4 5 5 6 5 6 4 4 4 5 5 4 4 5 5 5 5 5 5 5 5 6 6 5 6
7 6 7 7 6 6 5 5 5 6 5 6 5 6 6 6 6 6 6 5 6 5 6 5 5 6 6 6 5 4 5 6 6 6 6 5 5 5 4 5 6 3 4 4 4 4 4 4 5 4 4 5 5 5 5 5 5 5 5 4 5 6 5 5 5 5 5 5 5 6 6 6 5 6 7 7 5 5 4 5 6 5 7 7 4
8 8 7 7 6 7 7 7 7 7 6 6 5 6 6 6 6 5 7 5 5 5 5 6 6 6 6 5 6 6 6 6 7 6 5 5 5 5 5 6 5 3 3 4 4 5 4 5 5 5 5 5 5 4 4 4 4 4 4 4 4 5 5 5 6 5 5 5 6 6 7 6 6 7 8 6 5 6 6 7 9 8 9 9 7
5 5 6 6 6 6 7 7 7 7 6 6 6 5 5 5 5 6 7 6 6 6 6 6 7 7 6 6 6 6 7 6 6 5 6 5 5 4 4 5 4 4 5 4 4 4 5 4 4 3 2 1 1 1 2 2 2 3 4 4 3 4 4 4 4 5 5 5 6 7 6 6 6 8 8 8 6 5 6 6 8 7 7 9 7
6 7 7 6 6 7 7 7 7 7 6 6 6 6 6 5 5 6 5 5 6 6 7 7 7 8 6 7 6 6 7 6 6 5 5 5 5 6 6 4 5 5 4 5 5 4 4 3 1 1 0 0 0 0 1 1 1 0 1 2 3 3 3 3 3 4 4 5 5 6 7 6 6 8 8 7 7 7 7 7 8 8 7 7 7
7 7 7 9 7 6 6 6 6 6 7 7 6 6 6 6 5 5 6 6 6 7 6 7 7 8 7 7 6 7 6 6 6 5 5 5 6 5 4 4 4 4 4 4 4 4 3 2 1 0 0 1 1 1 1 1 2 2 2 2 2 3 3 4 4 4 4 4 5 6 6 6 6 7 9 8 8 8 8 8 8 9 8 7 8
8 8 6 5 6 7 7 6 6 6 6 6 7 7 6 6 6 4 5 6 7 7 6 7 7 7 7 6 6 6 6 6 6 6 6 6 6 5 4 4 4 4 4 4 3 4 2 2 1 1 2 1 1 1 1 1 2 1 2 2 3 3 3 3 4 4 4 4 5 5 6 6 7 7 8 9 8 9 8 9 9 9 9 8 9
4 5 7 9 8 7 8 7 7 7 7 6 5 6 7 6 7 5 6 7 7 8 7 6 6 7 7 7 6 5 6 6 5 6 6 6 5 5 4 3 4 4 4 4 3 3 2 2 2 3 3 2 2 3 2 2 2 2 2 3 2 3 4 4 4 4 4 4 5 5 6 6 7 7 8 9 8 9 9 10 9 7 9 9 9
7 7 6 7 9 9 9 8 8 8 8 8 7 7 6 5 5 5 6 7 7 8 7 6 5 7 6 6 6 5 5 6 7 7 6 5 4 4 3 3 3 3 3 3 3 3 4 4 4 4 4 4 4 4 3 3 4 4 2 4 4 4 5 6 7 7 6 5 5 5 6 7 8 11 14 13 13 12 10 11 12 7 8 9 10
10 9 9 7 7 8 9 9 8 9 9 8 8 8 8 8 7 6 7 5 8 7 8 6 6 6 6 6 7 6 6 6 6 6 4 4 4 3 3 3 4 4 4 3 4 3 4 4 4 4 3 3 3 2 5 9 7 5 5 5 5 4 4 4 5 7 8 6 7 6 7 10 13 14 15 16 16 16 15 12 12 11 10 10 10
10 8 8 8 7 7 8 9 9 9 9 8 8 8 8 8 7 7 7 6 7 8 7 7 6 4 6 7 7 7 6 6 4 4 4 4 4 3 4 4 4 4 4 4 4 5 4 4 4 4 4 4 4 3 8 8 7 7 5 4 4 6 5 5 5 5 7 8 8 7 7 9 10 10 11 14 15 16 16 16 18 18 15 13 12
10 9 9 9 10 10 11 12 11 10 10 9 9 8 9 9 8 8 8 7 7 7 9 7 5 5 5 7 7 7 6 5 4 4 5 4 4 4 4 4 4 5 4 4 6 4 4 4 5 4 4 5 4 6 8 9 8 7 6 4 3 5 5 5 6 6 6 7 8 9 8 7 7 9 9 10 13 15 16 16 18 18 18 19 18
11 11 12 12 14 14 12 10 9 11 11 9 9 10 10 10 10 9 8 8 8 8 8 8 5 5 5 6 6 7 6 5 5 5 4 4 4 4 5 5 6 3 3 5 4 5 5 5 5 6 6 5 5 7 8 11 10 9 9 6 3 3 4 5 5 6 7 7 8 8 9 8 6 10 9 8 10 11 14 17 17 18 18 19 17
8 10 13 11 7 6 7 7 7 6 7 8 7 8 8 8 10 9 10 9 9 8 8 8 6 5 5 6 6 7 7 6 4 4 4 4 5 5 4 3 3 4 5 4 4 5 4 5 5 5 5 5 5 8 11 12 12 13 13 10 4 5 5 5 6 7 7 7 7 8 9 11 9 6 5 7 9 11 12 13 12 11 12 14 17
10 9 8 9 10 9 8 8 9 9 8 9 7 6 8 8 9 10 8 10 8 9 8 7 7 5 5 5 6 7 7 5 4 4 4 5 5 4 5 4 4 4 4 4 4 4 4 4 4 4 5 6 5 10 9 11 12 12 13 10 5 4 5 5 6 5 7 7 7 8 8 10 11 10 7 8 9 11 13 14 14 14 13 13 13
11 12 12 12 13 16 16 12 8 10 8 7 9 8 9 9 7 10 9 8 9 9 8 6 6 5 5 5 6 7 6 5 5 4 6 6 5 4 4 3 3 3 2 2 3 2 4 4 3 3 4 6 6 9 9 9 11 11 11 6 5 5 5 6 6 5 6 6 6 7 7 9 10 11 12 16 15 12 12 15 15 15 15 14 14
12 12 14 12 11 11 11 11 11 11 11 9 8 8 10 11 10 9 9 9 8 9 7 6 6 5 5 5 5 7 6 5 4 6 5 4 4 4 3 2 4 3 4 4 3 2 2 3 4 4 4 5 5 8 9 9 9 12 8 5 5 5 6 6 7 5 5 5 4 4 6 8 10 10 15 21 23 20 12 14 15 16 16 16 17
5 3 5 7 7 8 8 12 13 10 9 9 8 10 11 11 10 9 10 8 8 8 6 6 6 5 5 5 5 6 6 5 4 5 4 3 2 1 1 1 3 2 2 2 2 3 3 3 3 4 2 3 5 7 9 9 11 14 10 6 6 6 7 7 8 8 6 6 7 10 8 6 9 11 20 25 27 20 13 14 15 16 18 18 18
6 10 12 9 9 11 11 10 11 12 9 9 9 10 11 11 10 9 9 9 8 7 6 7 6 5 5 6 5 5 5 5 5 3 3 3 1 1 0 1 1 1 1 2 3 3 4 4 3 3 5 2 3 6 8 11 14 14 11 6 7 7 8 9 10 11 11 9 8 8 11 11 12 17 25 25 27 21 15 14 15 16 17 18 16
6 5 6 10 11 13 10 11 12 11 10 11 10 9 10 11 10 9 9 9 8 6 6 6 6 6 6 5 4 5 4 4 4 3 2 1 0 1 2 2 3 3 3 3 3 3 2 3 3 2 3 2 4 5 7 15 15 15 15 9 7 8 11 12 11 10 12 12 11 10 10 13 21 23 24 26 26 27 19 15 14 14 15 17 13
7 8 8 9 7 8 11 10 9 10 10 9 9 11 10 9 10 9 9 7 6 6 6 6 6 6 5 5 4 4 4 3 2 2 1 1 2 2 3 4 3 4 3 3 2 2 1 1 2 2 3 4 4 5 6 14 16 16 17 13 7 8 8 9 10 11 9 11 12 12 11 15 24 25 26 28 28 28 26 17 13 13 14 20 24
5 7 8 9 8 8 8 7 6 9 8 8 9 11 10 10 9 9 7 5 6 6 6 7 6 5 5 4 4 3 3 3 3 3 4 4 4 3 3 2 2 1 0 0 0 0 0 1 2 3 4 4 5 8 5 10 15 15 16 17 9 7 10 9 11 10 11 9 11 11 11 18 27 28 29 29 30 28 29 17 16 24 30 29 20
10 7 4 10 10 9 8 7 6 7 7 7 10 11 10 8 9 8 5 5 6 6 7 7 6 6 4 4 4 3 3 3 4 4 4 4 3 4 4 2 1 1 1 1 1 2 3 3 3 4 4 4 4 5 10 7 11 15 15 15 16 12 17 9 8 10 10 11 11 12 13 22 27 28 29 30 29 31 23 16 28 28 28 31 25
4 6 8 8 10 8 8 5 5 5 6 6 10 12 9 10 9 6 6 5 6 6 6 6 6 5 5 4 3 4 4 4 4 4 4 4 4 3 2 2 2 2 2 4 5 4 4 6 6 5 5 5 4 4 6 10 10 15 15 16 16 16 16 10 9 8 10 11 11 11 16 28 28 28 29 28 29 26 20 27 28 29 31 27 15
10 9 7 7 12 12 9 7 5 6 5 5 5 12 11 11 7 6 6 7 6 7 7 6 6 5 5 4 4 4 4 4 3 3 4 3 3 2 3 2 4 4 5 5 4 4 5 5 5 5 5 5 5 4 4 7 13 14 15 16 16 17 16 18 11 9 10 10 16 24 26 26 26 27 28 26 21 22 26 28 29 29 25 12 11
8 8 8 8 9 9 10 10 6 4 5 4 4 8 14 9 7 6 6 6 7 8 7 6 5 4 4 4 6 4 4 4 4 3 3 3 3 2 3 3 4 4 3 3 3 4 5 4 4 3 4 4 4 3 3 4 7 8 9 14 17 17 17 18 17 13 18 23 23 23 25 24 22 20 16 13 13 15 26 27 25 21 12 11 12
11 9 10 10 10 10 10 10 9 4 5 5 6 4 5 8 8 7 6 7 7 7 7 6 6 5 4 4 5 5 4 4 3 3 3 3 3 3 3 2 2 3 3 3 3 3 4 5 4 4 3 4 4 4 5 5 6 7 7 8 9 9 14 14 10 9 11 11 15 16 15 19 17 24 23 21 18 17 14 11 10 11 12 10 11
7 9 8 8 9 11 11 10 9 7 6 6 6 6 6 6 6 6 7 7 7 7 8 7 6 5 5 4 5 5 5 5 3 3 3 3 3 1 2 2 2 2 4 3 3 3 3 3 4 4 4 4 4 5 6 9 9 9 9 8 8 8 9 8 10 11 12 13 13 13 15 11 10 11 11 9 9 9 10 10 11 11 11 12 15
10 8 9 11 10 10 10 10 9 7 7 7 7 6 6 6 6 6 7 8 8 6 6 6 5 5 5 4 4 4 4 4 3 2 1 1 1 0 1 1 1 3 1 2 3 2 1 1 1 3 5 5 4 5 6 11 11 15 13 12 11 11 11 10 14 22 15 11 10 10 10 11 10 11 10 11 10 12 12 13 13 11 10 11 11
6 7 7 6 7 10 11 10 8 7 7 7 7 6 5 4 4 5 6 8 8 7 6 6 5 5 5 5 5 5 4 3 3 2 2 3 3 2 3 3 3 6 6 5 5 2 2 3 4 4 3 4 5 6 12 16 16 16 17 18 17 19 19 17 21 25 15 9 9 10 9 9 10 10 12 13 14 13 14 13 12 14 12 10 12
8 9 8 8 8 7 7 8 9 8 8 8 7 6 5 4 4 4 6 7 7 8 6 6 6 5 5 5 5 5 4 5 3 3 2 3 4 3 8 10 8 5 5 8 11 10 9 7 5 1 3 8 8 12 15 16 17 17 17 17 17 18 19 20 21 16 11 10 10 10 11 10 9 9 10 12 13 13 13 12 13 13 10 13 13
Wind_Direction
202 199 194 191 193 192 189 185 187 187 187 183 181 183 182 178 169 181 182 170 167 173 179 178 182 182 191 199 206 203 203 202 204 201 194 198 196 199 199 199 195 197 199 196 205 206 213 217 220 223 204 193 196 206 206 213 210 201 205 195 208 227 241 206 209 143 171 286 272 261 273 244 244 241 244 245 239 242 242 241 244 247 243 244 242
189 208 204 193 193 189 181 184 182 184 198 187 189 189 184 174 179 182 177 180 180 179 182 188 192 192 186 195 190 190 195 200 209 208 204 198 197 201 203 202 197 197 199 201 204 203 209 214 215 218 208 207 208 211 214 210 199 202 192 213 215 211 227 191 199 141 239 229 260 310 295 273 240 229 239 245 242 243 238 239 240 239 245 243 246
195 203 193 194 191 187 182 187 192 194 192 191 190 185 186 180 186 181 180 182 187 184 181 195 196 195 191 180 177 181 211 201 197 200 201 206 203 200 201 199 197 203 199 198 202 205 206 207 213 214 212 202 207 215 208 208 203 203 194 201 227 268 249 212 197 191 226 99 69 356 290 326 337 316 259 255 249 246 236 237 237 240 246 246 244
199 196 194 195 188 187 185 187 193 193 194 196 187 187 188 186 186 183 184 185 187 190 191 194 191 190 191 167 180 174 182 195 202 206 206 207 215 201 201 196 198 196 190 194 199 202 202 206 210 212 217 206 205 206 203 212 202 208 203 211 185 231 226 236 201 204 185 124 284 214 244 125 308 290 307 278 224 242 228 236 231 239 248 252 240
195 198 196 182 184 189 188 191 184 190 195 194 189 188 188 189 187 185 185 186 188 186 188 177 164 170 171 152 138 111 39 157 181 217 208 206 203 183 203 193 198 203 195 189 191 201 203 207 209 215 216 203 197 206 209 214 211 207 199 195 195 214 239 241 233 200 213 207 196 89 304 282 227 283 342 278 212 263 245 233 235 238 243 244 233
186 190 189 186 185 187 192 185 186 196 197 199 195 192 187 187 183 182 185 188 187 185 182 173 177 173 170 173 179 187 191 179 199 200 194 195 205 203 195 194 194 199 200 206 205 210 215 209 205 209 209 197 190 203 212 211 214 207 205 205 211 211 218 233 239 216 222 222 234 239 238 265 280 223 29 294 334 214 242 222 235 235 247 249 239
235 203 179 177 192 180 189 188 194 195 205 194 191 193 190 185 185 181 183 189 189 183 177 171 178 183 186 189 183 187 190 215 200 171 171 207 181 189 200 195 196 191 205 209 219 221 221 216 220 210 198 199 201 203 207 209 211 211 208 205 212 208 195 229 233 228 201 250 233 240 255 259 240 243 251 308 296 308 281 228 246 223 239 235 237
184 192 192 192 184 184 188 197 194 201 191 178 193 192 189 188 185 186 182 183 188 180 178 176 175 179 180 184 179 182 192 190 181 186 192 172 179 206 207 218 204 200 204 213 218 212 212 221 215 218 219 219 207 211 214 214 214 213 197 216 231 204 203 223 238 218 205 238 199 235 245 262 276 263 251 243 274 292 290 271 218 228 228 237 221
182 181 189 190 193 200 197 196 207 192 175 188 193 192 189 185 182 179 182 180 185 179 177 178 165 166 169 168 180 202 178 186 177 147 162 177 177 201 186 237 227 225 211 195 190 186 184 208 224 235 237 242 222 224 220 205 198 186 178 190 202 212 205 221 237 241 212 243 207 245 242 248 257 251 260 225 237 264 274 268 288 251 256 243 229
201 204 197 197 197 200 203 193 181 199 195 180 169 157 170 170 177 178 183 176 170 167 168 163 153 149 155 168 175 187 164 156 133 115 101 116 166 203 180 109 95 90 55 104 144 160 175 196 208 225 233 244 233 229 210 203 204 207 205 203 205 207 203 207 219 232 232 235 217 215 202 236 244 261 239 232 251 234 260 268 272 285 289 276 203
157 161 180 188 203 168 150 159 170 139 152 157 162 159 155 158 164 172 176 158 152 156 155 158 156 157 164 174 175 169 166 152 138 125 114 108 158 175 143 127 92 94 87 57 152 133 70 103 192 238 267 315 235 262 263 250 251 246 249 255 245 231 229 227 231 247 250 238 226 217 228 220 231 233 229 207 223 243 259 260 262 249 247 278 263
179 158 157 133 117 119 126 136 148 150 128 146 158 153 157 158 154 160 168 160 148 146 146 153 161 174 171 164 168 169 164 160 162 180 184 171 161 164 163 71 37 77 58 23 6 33 60 21 126 277 274 272 265 239 247 246 248 239 239 236 237 231 234 226 223 228 228 235 239 226 228 226 229 233 238 229 219 245 251 274 278 286 270 241 275
167 183 176 179 178 179 169 158 147 157 164 167 169 166 165 160 164 161 176 163 151 147 154 160 158 162 156 160 162 162 165 168 177 177 180 171 169 157 137 6 353 5 346 339 319 309 257 251 257 260 284 269 277 287 277 260 241 233 236 243 239 235 230 234 244 247 234 229 237 244 258 262 256 264 277 260 256 258 253 273 274 255 275 283 269
180 183 188 194 197 198 186 175 173 170 173 172 173 169 171 165 166 158 168 166 148 144 151 149 154 147 138 139 153 161 165 161 162 160 173 170 157 160 148 143 132 225 270 266 243 241 246 238 230 226 218 191 126 8 357 330 314 289 266 255 251 251 242 235 238 245 249 248 243 249 242 245 254 256 255 249 257 263 265 264 288 283 251 278 283
178 181 190 196 201 186 179 177 176 176 175 176 174 172 163 165 159 154 150 164 149 146 140 146 152 150 142 135 127 129 142 140 138 134 142 141 139 120 143 167 180 208 209 235 262 260 255 249 229 214 212 199 212 280 281 294 318 321 311 301 303 286 262 259 258 255 259 264 260 251 262 264 267 267 252 257 250 246 255 268 282 296 294 269 270
178 160 178 190 183 176 166 169 169 170 173 174 174 169 164 162 154 152 150 155 149 143 147 149 151 142 126 123 120 118 116 117 98 95 98 110 119 147 178 182 197 206 213 112 10 52 113 36 2 300 305 293 260 249 267 270 258 251 281 328 312 317 306 293 280 275 272 274 273 276 273 263 263 264 254 254 251 251 255 263 262 274 290 299 296
176 161 163 155 139 152 157 156 160 162 165 173 175 168 157 149 146 142 142 142 145 144 139 137 131 130 114 108 102 91 90 101 112 94 289 303 144 166 175 204 133 141 143 138 111 84 76 80 63 22 357 333 337 322 297 294 294 264 233 221 237 244 231 249 265 284 271 270 265 259 254 263 258 255 263 266 269 270 266 262 251 256 268 281 295
182 172 164 154 148 146 146 148 152 158 161 160 165 158 149 150 148 145 147 146 146 134 132 135 121 128 142 128 118 123 120 114 126 172 190 144 83 98 105 90 77 88 85 58 58 50 51 57 62 49 35 58 41 347 343 305 300 282 280 290 282 280 262 262 232 225 249 258 274 285 289 294 304 301 277 267 268 263 264 259 258 252 245 258 275
148 159 154 139 139 140 138 140 138 134 138 141 140 139 138 138 142 143 148 148 144 133 124 120 141 143 147 146 143 136 158 179 166 126 122 110 102 89 85 88 56 39 52 44 47 47 40 34 38 29 31 22 13 16 7 22 40 14 346 319 306 309 269 279 286 271 260 246 256 261 258 260 257 258 260 257 247 245 247 258 263 265 256 253 266
161 160 158 148 139 138 137 138 137 136 130 125 119 120 129 137 136 134 129 133 139 149 147 155 160 154 149 151 154 153 147 141 135 114 86 87 86 83 78 69 70 57 58 63 66 63 54 46 37 46 41 34 31 24 23 16 18 23 10 1 337 15 347 294 289 291 279 274 276 280 277 278 283 280 278 273 269 256 249 247 246 249 255 252 264
170 159 154 145 137 130 126 126 124 113 108 107 109 116 124 125 130 139 142 144 141 142 134 138 132 129 127 124 124 117 110 106 91 87 88 82 76 77 76 97 72 42 57 59 65 67 66 62 56 49 49 43 40 28 23 24 26 15 8 1 355 6 358 337 338 333 330 318 301 296 302 308 318 309 303 308 306 302 302 291 286 279 266 254 257
168 161 149 144 137 132 123 112 109 110 113 108 105 105 109 116 125 123 116 122 128 127 125 124 110 114 113 111 101 97 98 90 88 81 84 80 79 77 84 65 71 44 73 73 71 70 70 65 58 36 35 30 30 22 14 23 17 14 360 1 6 2 355 343 351 338 337 335 329 319 315 314 309 298 298 295 296 301 301 298 285 282 278 277 250
170 159 154 148 146 144 140 135 131 128 125 116 108 109 113 114 113 115 117 122 122 124 114 112 110 106 103 101 99 92 91 91 90 88 88 88 84 73 69 79 66 52 54 76 89 82 74 67 53 43 34 28 20 17 11 17 10 9 1 353 1 360 353 346 344 336 334 336 328 322 316 320 324 314 306 302 302 291 284 279 278 271 272 269 258
146 146 144 147 145 138 131 132 130 128 126 123 121 112 106 106 113 116 118 124 115 115 113 107 103 99 101 94 90 93 90 92 92 94 90 82 82 74 73 73 74 62 57 41 57 75 73 77 76 67 73 84 62 58 32 26 18 11 3 357 355 356 341 330 320 317 317 318 311 309 305 307 305 298 297 298 293 281 278 275 274 273 264 271 262
151 153 152 144 140 145 145 141 138 131 126 125 122 119 115 117 115 119 123 123 115 115 110 108 110 105 97 98 94 92 94 91 94 90 90 86 78 73 61 73 73 61 49 54 45 53 67 70 97 143 175 305 255 265 338 325 309 315 310 303 310 312 311 304 301 298 304 302 301 297 299 304 304 298 295 294 295 291 284 280 279 279 274 271 269
161 152 151 160 159 145 136 140 135 133 132 128 122 118 116 111 114 124 123 114 110 107 110 112 111 107 102 95 95 94 100 105 104 95 91 82 74 70 74 59 79 73 59 55 66 53 78 80 92 183 198 276 293 298 283 288 297 312 319 308 297 290 282 281 282 280 277 278 278 283 285 287 287 286 288 289 289 287 287 281 280 282 279 276 276
174 168 157 131 144 155 147 138 135 132 131 131 128 122 115 114 109 107 110 110 114 108 106 105 106 107 106 104 105 110 110 104 98 94 83 74 72 71 70 69 71 88 83 70 54 59 32 71 43 46 30 345 337 340 339 319 314 312 306 305 302 301 289 284 279 283 287 283 279 278 281 281 280 278 281 284 289 287 281 279 275 279 281 280 277
151 153 167 170 160 148 146 145 137 133 125 119 118 121 124 124 124 116 109 108 110 107 105 107 111 109 110 112 110 107 99 96 89 80 76 73 72 70 72 68 82 85 92 94 83 82 32 60 31 37 7 23 23 11 348 332 314 300 307 302 298 304 311 307 301 294 286 285 280 282 279 278 274 273 272 278 277 281 284 281 275 270 278 279 275
179 190 178 165 165 162 155 150 145 139 134 133 130 123 117 110 109 112 109 112 117 111 110 112 115 115 116 115 107 98 92 85 81 78 77 78 80 83 78 86 90 89 79 80 84 78 65 41 30 34 19 9 23 357 345 341 337 329 329 329 330 332 329 325 322 319 314 305 294 279 277 276 270 270 269 269 269 268 278 285 283 275 270 275 277
191 189 184 179 168 162 160 153 154 152 148 145 140 139 137 134 128 119 113 123 113 115 119 120 117 118 113 105 100 93 89 85 82 88 100 100 95 96 106 89 73 69 64 56 59 63 66 59 42 29 31 20 7 359 347 347 351 349 340 338 333 327 322 313 312 312 310 308 300 295 283 274 277 279 279 279 278 275 268 261 273 285 279 274 272
195 181 178 177 169 166 159 162 164 160 159 151 150 145 137 129 129 126 125 129 119 122 118 117 115 113 109 106 102 99 95 93 104 108 104 95 92 97 84 74 68 61 55 46 55 48 40 34 40 27 20 15 1 348 342 350 351 349 347 329 321 313 313 307 303 301 302 308 305 300 296 297 293 288 289 288 286 286 286 282 275 268 265 264 275
191 182 173 173 176 177 177 175 169 166 162 158 153 152 143 141 138 133 133 128 121 121 117 111 113 116 112 111 111 110 104 108 110 101 96 96 100 93 79 74 64 49 37 47 50 41 33 21 19 25 21 3 348 338 338 345 343 339 330 310 294 294 299 302 303 302 299 299 299 301 297 292 290 290 294 299 296 294 292 288 285 283 278 268 256
187 180 180 184 187 186 180 169 167 169 164 163 154 150 154 150 139 139 130 126 124 122 117 114 120 120 119 117 120 116 114 109 99 98 99 100 100 81 68 57 51 41 45 50 31 35 26 12 17 11 3 353 344 334 335 343 343 343 342 342 322 296 299 298 299 297 296 297 298 298 300 292 283 285 292 292 293 296 294 291 286 283 279 276 272
189 184 186 187 167 159 169 170 164 156 149 144 155 151 147 140 131 130 129 128 126 121 119 122 122 124 123 121 120 115 107 103 101 97 98 93 82 73 67 61 60 43 46 40 34 32 23 19 11 2 347 340 335 332 340 342 342 340 339 343 334 323 306 295 292 293 292 292 290 295 299 302 302 297 285 289 296 300 301 302 302 296 291 285 282
188 187 182 176 172 159 151 154 159 155 146 139 136 143 136 130 132 126 127 126 125 124 122 126 124 128 122 119 115 108 104 101 99 100 95 81 75 69 56 41 49 42 39 25 16 20 13 16 359 355 346 336 329 331 334 335 333 330 328 333 320 311 298 288 285 279 281 280 285 285 287 289 299 306 309 303 304 303 303 303 302 299 295 292 287
191 185 185 173 173 174 172 164 145 138 144 146 148 151 140 134 127 125 126 124 126 122 125 128 124 125 120 117 114 108 102 102 97 85 79 69 62 57 50 23 44 26 26 44 21 42 22 357 349 353 353 331 322 324 322 321 324 317 320 321 314 307 301 297 292 287 278 278 278 283 290 297 302 308 313 315 313 311 305 305 306 305 303 299 293
194 187 186 183 172 159 152 141 146 146 146 152 154 149 140 132 127 126 124 127 125 125 130 132 127 123 114 110 109 109 104 96 90 84 75 67 61 41 33 41 48 28 30 20 14 352 331 349 341 348 344 315 312 320 324 315 314 328 335 331 319 313 307 305 305 302 296 292 293 292 297 302 308 310 316 319 322 326 316 310 307 306 304 302 300
142 93 111 120 121 117 133 143 143 145 146 145 154 151 141 132 130 131 129 128 128 130 137 132 125 118 109 103 95 97 101 96 87 88 89 81 69 53 58 39 75 46 17 355 347 353 351 356 341 317 307 298 304 315 326 319 352 358 359 347 333 333 324 328 325 327 329 325 318 321 320 311 313 314 323 325 323 324 315 311 307 305 304 302 300
147 154 145 138 138 139 137 132 136 143 152 149 152 148 137 132 134 134 131 131 133 138 140 132 122 110 98 91 89 88 95 102 95 97 101 93 98 119 231 66 66 66 20 355 2 8 349 342 318 282 295 287 301 329 345 1 6 4 5 355 349 349 347 348 345 336 333 331 328 330 328 330 327 321 321 320 320 320 313 311 310 305 303 300 302
93 79 117 126 127 124 131 144 152 153 147 150 151 144 136 134 134 133 131 135 139 138 128 112 105 97 90 83 85 91 94 100 105 104 104 113 144 61 31 38 14 44 14 359 2 360 334 305 301 311 341 16 23 359 358 8 10 9 8 11 5 12 359 344 341 336 329 326 325 323 324 326 325 321 320 319 318 318 317 313 311 306 304 302 310
115 118 120 119 122 132 143 148 144 143 146 149 146 137 134 133 134 130 133 136 134 122 113 107 100 97 90 90 84 95 100 95 113 120 117 68 52 46 18 33 17 9 28 5 348 301 258 281 323 3 34 18 35 22 357 8 10 10 14 18 21 8 350 336 327 325 323 320 321 322 322 321 324 323 322 320 318 317 317 313 308 303 302 305 309
90 113 120 115 113 113 110 109 126 140 143 146 143 133 133 136 131 131 136 131 119 112 108 105 103 100 98 91 92 88 93 86 67 66 55 45 20 39 41 23 29 17 9 302 279 237 142 57 40 45 46 31 23 18 3 5 8 12 13 8 8 355 348 335 327 320 319 316 316 317 316 322 324 323 322 320 319 319 320 319 311 311 312 312 311
129 116 118 128 125 127 124 126 131 136 141 146 138 133 135 133 130 138 130 120 110 108 107 108 106 104 103 99 89 85 74 74 62 62 75 46 20 29 17 40 52 44 88 99 51 33 52 79 80 37 40 34 17 7 2 4 7 10 6 5 2 355 346 342 325 318 319 316 317 315 313 320 321 321 320 320 320 320 321 315 316 315 314 313 309
105 124 138 131 122 121 119 110 116 128 135 144 143 135 138 135 139 136 121 112 108 108 111 112 113 111 106 95 89 78 75 68 64 62 72 75 46 38 41 42 56 81 67 45 28 27 24 26 28 16 13 12 1 359 345 357 6 5 4 3 357 351 346 339 329 314 314 312 313 318 319 321 321 320 320 319 320 319 317 317 317 317 316 310 304
141 142 135 135 138 137 127 112 105 114 120 129 144 138 139 140 145 131 135 127 123 120 120 121 118 117 106 101 86 86 77 65 73 88 82 89 71 82 70 25 64 50 55 52 26 31 32 24 19 15 360 348 346 337 335 352 7 4 1 356 351 349 345 339 328 313 311 311 315 316 317 319 318 319 320 320 318 317 318 319 319 318 313 307 309
127 129 137 130 125 125 130 127 111 108 115 116 127 146 143 150 134 134 131 129 129 128 124 125 122 114 114 107 102 87 74 74 69 77 100 112 113 99 94 63 68 66 66 71 39 35 29 25 15 5 356 333 327 320 333 349 359 355 353 353 349 346 338 334 328 317 318 319 319 319 320 319 319 319 319 317 319 316 317 315 313 311 309 315 318
152 150 136 136 140 140 144 143 137 131 121 117 115 92 111 128 136 134 131 131 131 129 126 126 125 121 110 108 111 109 99 75 60 53 47 57 62 82 91 96 106 89 71 68 46 43 27 14 359 349 344 338 329 335 348 348 349 347 348 345 343 335 334 331 323 315 318 317 321 322 322 322 317 316 316 314 309 304 304 303 310 317 320 318 321
143 146 147 143 151 152 153 152 148 144 131 124 119 119 120 121 124 130 132 130 132 136 137 138 134 127 121 120 116 108 105 93 72 75 65 36 22 84 104 127 106 103 89 37 60 38 28 360 347 337 344 352 349 355 350 352 351 349 347 346 342 336 337 335 332 330 329 327 325 324 325 320 312 310 310 304 303 306 313 320 323 325 323 319 313
153 160 161 162 160 158 160 155 151 145 137 131 126 125 125 129 131 135 140 137 139 136 132 132 132 122 121 116 109 107 111 106 84 55 44 144 127 282 178 280 238 183 150 128 101 45 336 275 332 342 352 348 353 356 350 348 350 352 352 347 344 346 341 339 336 335 332 328 326 328 327 327 322 319 318 321 329 333 329 326 323 326 322 316 315
152 150 158 154 163 161 160 158 151 147 144 141 139 132 130 122 131 139 144 146 144 139 136 139 134 131 128 121 116 113 112 110 113 100 64 15 351 140 187 149 64 41 58 69 103 121 89 89 69 342 354 359 335 327 341 351 353 355 355 354 350 346 346 343 340 340 341 335 333 327 323 323 324 330 332 337 338 335 331 328 325 327 322 314 321
160 154 167 165 164 162 155 157 158 153 149 148 144 145 141 141 137 151 153 155 148 142 142 141 141 145 146 140 135 127 129 110 108 101 100 108 81 34 93 78 57 50 83 84 72 54 41 30 50 80 320 350 345 348 352 353 355 357 357 357 356 355 353 350 348 346 349 344 337 335 334 335 339 339 338 336 333 329 328 325 324 323 322 327 326